"Pseudo-MPEC" for ZTF09oE

Created 2020 Jan 16 23:07:04 UT using Find_Orb

Click here for an explanation of pseudo-MPECs

 
 Astrometry: 
     ZTF09oE  C2020 01 11.33107605 44 55.70 -09 37 25.3    ~1BMq 14.95RUNEOCPI41
     ZTF09oE  C2020 01 11.33142405 45 03.06 -09 38 38.2    ~1BMq 14.95RUNEOCPI41
     ZTF09oE  C2020 01 11.33152805 45 05.32 -09 39 01.3    ~1BMq 14.97RUNEOCPI41
     ZTF09oE  C2020 01 11.33187505 45 12.63 -09 40 14.5    ~1BMq 14.97RUNEOCPI41

Station data:
(I41) Palomar Mountain--ZTF  (N33.357340 W116.859780)  US/California. 1.2-m
   f/2.44 Oschin Schmidt + CCD.

Orbital elements:  ZTF09oE
   Perigee 2020 Jan 10.942930 +/- 30.7 TT = 22:37:49 (JD 2458859.442930)
Epoch 2020 Jan 11.0 TT = JDT 2458859.5                        AutoNEOCP
M   1.10061724 +/- 31               (J2000 equator)
n  19.28553217 +/- 0.491            Peri.  118.82236 +/- 54
a297245.818 +/- 5.27e+7             Node   256.21048 +/- 60
e   0.7828678 +/- 0.233             Incl.   32.00887 +/- 12
P  18.67d                  H 30.0   G  0.15   U 12.3  SR
q 64541.6154 +/- 2.97e+7    Q 529950.022 +/- 5.08e+9
From 4 observations 2020 Jan. 11 (69.0 sec); mean residual 0".36
Residuals in arcseconds: 
200111 I41  .02-  .23-    200111 I41  .49+  .37-    
200111 I41  .33-  .69+    200111 I41  .14-  .09-    

Ephemerides (geocentric):
Date (UTC) HH   RA              Dec         delta   r     elong  mag " sig PA
---- -- -- --  -------------   -----------  ------ ------ -----  --- ---- ---
2020 01 16 23  12 17 00.213   -30 13 08.82  477973 .98413  98.3 20.3  53d 175
2020 01 17 00  12 17 52.592   -30 10 53.48  479055 .98413  98.2 20.3  53d 175
2020 01 17 01  12 18 44.703   -30 08 37.24  480118 .98413  98.1 20.3  53d 175
2020 01 17 02  12 19 36.551   -30 06 20.09  481164 .98413  98.0 20.3  53d 175
2020 01 17 03  12 20 28.143   -30 04 02.05  482191 .98413  97.9 20.3  53d 175
2020 01 17 04  12 21 19.484   -30 01 43.13  483200 .98412  97.8 20.3  53d 175
2020 01 17 05  12 22 10.580   -29 59 23.33  484190 .98412  97.7 20.3  53d 175
2020 01 17 06  12 23 01.436   -29 57 02.66  485163 .98412  97.6 20.4  53d 175
2020 01 17 07  12 23 52.057   -29 54 41.14  486117 .98412  97.5 20.4  53d 175
2020 01 17 08  12 24 42.448   -29 52 18.76  487054 .98412  97.4 20.4  53d 175
2020 01 17 09  12 25 32.616   -29 49 55.54  487972 .98411  97.3 20.4  53d 175
2020 01 17 10  12 26 22.564   -29 47 31.48  488873 .98411  97.2 20.4  53d 175
2020 01 17 11  12 27 12.298   -29 45 06.59  489756 .98411  97.1 20.4  53d 175
2020 01 17 12  12 28 01.823   -29 42 40.87  490621 .98411  97.0 20.4  53d 175
2020 01 17 13  12 28 51.143   -29 40 14.34  491468 .98411  96.9 20.4  53d 175
2020 01 17 14  12 29 40.263   -29 37 46.98  492297 .98411  96.8 20.4  53d 175
2020 01 17 15  12 30 29.188   -29 35 18.82  493109 .98410  96.7 20.4  53d 175
2020 01 17 16  12 31 17.922   -29 32 49.85  493903 .98410  96.6 20.4  53d 175
2020 01 17 17  12 32 06.469   -29 30 20.08  494680 .98410  96.5 20.4  53d 175
2020 01 17 18  12 32 54.835   -29 27 49.51  495439 .98410  96.4 20.4  53d 175
2020 01 17 19  12 33 43.023   -29 25 18.16  496181 .98410  96.3 20.5  53d 175
2020 01 17 20  12 34 31.037   -29 22 46.01  496905 .98409  96.2 20.5  53d 175
2020 01 17 21  12 35 18.883   -29 20 13.08  497612 .98409  96.1 20.5  53d 175
2020 01 17 22  12 36 06.562   -29 17 39.36  498302 .98409  96.0 20.5  53d 175
2020 01 17 23  12 36 54.081   -29 15 04.87  498974 .98409  96.0 20.5  54d 175
2020 01 18 00  12 37 41.443   -29 12 29.60  499629 .98409  95.9 20.5  54d 175
2020 01 18 01  12 38 28.651   -29 09 53.56  500267 .98409  95.8 20.5  54d 175
2020 01 18 02  12 39 15.709   -29 07 16.74  500888 .98408  95.7 20.5  54d 175
2020 01 18 03  12 40 02.622   -29 04 39.16  501491 .98408  95.6 20.5  54d 175
2020 01 18 04  12 40 49.392   -29 02 00.81  502078 .98408  95.5 20.5  54d 175
2020 01 18 05  12 41 36.024   -28 59 21.69  502647 .98408  95.4 20.5  54d 175
2020 01 18 06  12 42 22.521   -28 56 41.81  503199 .98408  95.3 20.5  54d 175
2020 01 18 07  12 43 08.887   -28 54 01.16  503735 .98408  95.2 20.5  54d 175
2020 01 18 08  12 43 55.125   -28 51 19.75  504253 .98407  95.1 20.5  54d 175
2020 01 18 09  12 44 41.239   -28 48 37.57  504755 .98407  95.0 20.5  54d 175
2020 01 18 10  12 45 27.232   -28 45 54.63  505239 .98407  94.9 20.5  54d 175
2020 01 18 11  12 46 13.107   -28 43 10.93  505707 .98407  94.9 20.5  54d 175
2020 01 18 12  12 46 58.868   -28 40 26.46  506158 .98407  94.8 20.6  54d 175
2020 01 18 13  12 47 44.518   -28 37 41.23  506592 .98407  94.7 20.6  54d 175
2020 01 18 14  12 48 30.059   -28 34 55.23  507009 .98406  94.6 20.6  54d 175
2020 01 18 15  12 49 15.497   -28 32 08.47  507410 .98406  94.5 20.6  54d 175
2020 01 18 16  12 50 00.832   -28 29 20.94  507794 .98406  94.4 20.6  54d 175
2020 01 18 17  12 50 46.070   -28 26 32.64  508161 .98406  94.3 20.6  54d 175
2020 01 18 18  12 51 31.212   -28 23 43.57  508512 .98406  94.2 20.6  54d 175
2020 01 18 19  12 52 16.261   -28 20 53.72  508846 .98406  94.1 20.6  54d 175
2020 01 18 20  12 53 01.222   -28 18 03.10  509163 .98405  94.1 20.6  54d 175
2020 01 18 21  12 53 46.096   -28 15 11.70  509464 .98405  94.0 20.6  54d 175
2020 01 18 22  12 54 30.886   -28 12 19.51  509748 .98405  93.9 20.6  54d 175